sat.trackr.live / text

‹ back to catalog

STARLINK-11377 [DTC]

NORAD 62013 · 2024-213F

PAYLOAD ACTIVE UNKNOWN

§ Identity

Operator
Country
US
Launch date
2024-11-18
Launch site
AFWTR
Launch vehicle
Mass (kg)
RCS (m²)

Purposes: comms

External: N2YO · Heavens-Above · Gunter

§ Orbital elements

Epoch: 2026-05-25T01:45:26.680608Z

Period
91.73 min
Inclination
53.1577°
Eccentricity
0.0000661
Mean motion
15.69772428 rev/d
Perigee alt
359.1 km
Apogee alt
360.0 km
Semi-major
6,737.7 km
B*
1.6170e-3
RAAN
24.6082°
Arg perigee
91.7395°
Mean anomaly
268.3699°
Rev number
8,691

§ Raw data

STARLINK-11377 [DTC]1 62013U 24213F   26145.07322547  .00200641  00000+0  16170-2 0  99912 62013  53.1577  24.6082 0000661  91.7395 268.3699 15.69772428 86919

JSON: /api/v1/satellites/62013 · /tle

For live sub-satellite position, see the globe view (requires WebGL).

§ Visibility from observer

Set your observer location to see the next 7 days of passes ≥ 10°. The values pass through the URL so the page stays shareable.

No JS? Fill the form by hand. The geolocation button needs JavaScript.